FENGYUN 1C DEB

Satellite information

Favourite Embed

Satellite Type and Status

DEBRISIN ORBIT

Key statistics

Satellite FENGYUN 1C DEB at a glance.

Uptime

9667

Days in orbit

Revolutions

≈ 14.6

Per day

Orbit

SSO

Sun Synchronous Orbit

Inclination

98.8

Latest

Satellite identification and parameters

Extended collection of information and parameters for FENGYUN 1C DEB.

Object identification

Identified? True

Debris? True

Object name: FENGYUN 1C DEB

International designator: 1999-025CAF

Object number (NORAD): 31625

Object ID (CCSDS): 31625

Country: PEOPLES REPUBLIC OF CHINA (PRC)

Current information (Y/N): Y

RCS size: SMALL

Orbital parameters

Period: 98.952 minutes

Inclination: 98.8087 deg

SMA: 7086.677 km

Apoapsis: 814.748 km

Periapsis: 602.336 km

RAAN: 22.1325 deg

Eccentricy: 0.01498669

Argument of periapsis: 161.1868 deg

Mean anomaly: 351.4816 deg

Mean motion: 14.55253968 rev/day

Mean motion (dot): 0.0000174 rev/day2

B* drag term: 0.00035710801 1/REarth

Two-line elements (TLE)

Creation date: Oct. 26, 2025, 2:54 a.m.

Reference frame: TEME

Reference center: EARTH

Epoch: Oct. 25, 2025, 5:03 p.m. UTC

TLE line 0: 0 FENGYUN 1C DEB

TLE line 1: 1 31625U 99025CAF 25298.71099617 .00001740 00000-0 35711-3 0 9990

TLE line 2: 2 31625 98.8087 22.1325 0149867 161.1868 351.4816 14.55253968976941

Live tracking on map

Real-time ground track for satellite FENGYUN 1C DEB.

In-orbit conjunctions

A list of the most updated potential collisions computed for object FENGYUN 1C DEB.

Target Orbit TCA Probability of collision Miss distance Type
COSMOS 2251 DEB LEO 2025-06-25 17:45:54 0.000164466 129.0 (m) DEBRIS
DUMMY MASS 1 LEO 2024-12-11 17:46:45 0.0001676873 93.0 (m) PAYLOAD

Associated space launch

Chinese polar orbiting meteorological satellite

FENGYUN 1C DEB was lifted into orbit during the mission ‘Long March 4B | Feng Yun 1C’, on board a Long March 4B space rocket.

The launch took place on May 10, 1999, 1:33 a.m. from Launch Complex 7.

For more information about the launch, click the button.

Launch to space Long March 4B | Feng Yun 1C
Long March 4B | Feng Yun 1C

Agency: N/A

Status: Launch Successful

Launch date: May 10, 1999, 1:33 a.m. UTC

Rocket: Long March 4B

Launch pad: Launch Complex 7

Location: Taiyuan Satellite Launch Center, People's Republic of China

...

Latest news about this satellite

There are no fresh news available about this satellite. Check back as we update our databases every day.


Newsletter sign-up

Weekly statistics, charts and insights to help you stay on top of the space industry.